Location: Banios
(43.0451°N, 0.2335°E)
Time: 08:40:30
(UTC+00:00)

A-11 Canister half - Pass Details

Date: 19 May 2021
Orbit: 1527 x 1681 km, 47.3° (Epoch: 22 June)

Event Time Altitude Azimuth Distance (km) Brightness Sun altitude
Rises 04:53:24 0° 181° (S) 4,667 11.3 2.7°
Reaches altitude 10° 04:57:39 10° 164° (SSE) 3,699 11.0 3.4°
Maximum altitude 05:03:27 18° 125° (SE) 3,112 11.1 4.4°
Drops below altitude 10° 05:09:18 10° 86° (E) 3,766 12.8 5.4°
Sets 05:13:39 0° 70° (ENE) 4,782 14.5 6.1°
